Regional Weather Roundup
Issued by NWS Upton, NY

Current Version | Previous Version | Graphics & Text | Print | Product List | Glossary Off
Versions: 1 2 3 4 5 6 7 8 9 10 11 12 13 14 15 16 17 18 19 20 21 22 23 24 25 26 27

000
ASUS41 KOKX 181505
RWROKX

Regional Weather Roundup
National Weather Service New York NY
1000 AM EST SUN FEB 18 2018

Note: "FAIR" indicates few or no clouds below 12,000 feet with no
significant weather and/or obstructions to visibility.

NYZ071-072-176-178-NJZ106-104-181600-
New York City Metro Area

CITY           SKY/WX    TMP DP  RH WIND       PRES   REMARKS
Central Park   FAIR      38  23  55 NW12G21   30.27R WCI  30
Bronx Bot Gard   N/A     37  21  52 NW6       30.27R WCI  33
Bronx Lehman C   N/A     37  23  56 NW6         N/A  WCI  33
LaGuardia Arpt FAIR      39  24  55 NW14G21   30.26R WCI  31
Queens College   N/A     37  23  56 NW14        N/A  WCI  29
Kennedy Intl   FAIR      38  24  57 NW17G28   30.26R WCI  28
Breezy Point     N/A     37 N/A N/A NW13G22     N/A  WCI  29
Brooklyn Coll    N/A     37  23  56 NW10        N/A  WCI  30
Staten Island    N/A     37  23  56 NW10        N/A  WCI  30
Newark/Liberty FAIR      39  23  52 NW10G22   30.26R WCI  32
Teterboro      FAIR      38  23  55 NW12G24   30.26R WCI  30
$$

NYZ177-179-078>081-181600-
Long Island New York

CITY           SKY/WX    TMP DP  RH WIND       PRES   REMARKS
Jones Beach      N/A     37 N/A N/A NW15G22     N/A  WCI  28
Wantagh          N/A     37  25  60 NW13        N/A  WCI  29
Hempstead        N/A     37  28  70 NW12      30.28R WCI  30
Matinecock Pt    N/A     39 N/A N/A NW22G28     N/A  WCI  29
Farmingdale    FAIR      37  24  59 NW13      30.24R WCI  29
MacArthur/ISP  FAIR      37  27  67 NW16G28   30.22R WCI  28
Shirley        FAIR      38  29  70 N21G30    30.21R WCI  28
Mt Sinai Harb    N/A    N/A N/A N/A N18         N/A
Westhampton    FAIR      39  29  67 NW22G28   30.21R WCI  29
East Hampton   FAIR      37  26  64 N14G24    30.19R WCI  29
Southold         N/A     37  27  65 N20         N/A  WCI  27
Montauk          N/A     40  28  62 NW18G26   30.19R WCI  31
$$

NYZ052-065-067-181600-
Hudson Valley

CITY           SKY/WX    TMP DP  RH WIND       PRES   REMARKS
White Plains   FAIR      36  21  54 NW13      30.20R WCI  27
Larchmont Harb   N/A     36 N/A N/A NW13        N/A  WCI  27
Croton On Huds   N/A     39 N/A N/A NW12G18     N/A  WCI  32
Somers           N/A     36  21  55 N7          N/A  WCI  30
Brewster         N/A     36  21  55 N16         N/A  WCI  26
Newburgh       SUNNY     36  21  55 NW15      30.21S WCI  26
Montgomery     FAIR      37  20  50 NW16G24   30.19R WCI  28
Otisville        N/A     36  21  55 NW8         N/A  WCI  29
Warwick          N/A     36  21  55 NW8         N/A  WCI  29
Suffern          N/A     36  21  55 N13         N/A  WCI  27
Poughkeepsie   FAIR      37  20  50 N15G23    30.20F WCI  28
Albany         PTSUNNY   34  24  67 NW14      30.27R WCI  25
$$

NJZ001-105-106-008-010-013-015-019>022-104-181600-
New Jersey

CITY           SKY/WX    TMP DP  RH WIND       PRES   REMARKS
Newark/Liberty FAIR      39  23  52 NW10G22   30.26R WCI  32
Teterboro      FAIR      38  23  55 NW12G24   30.26R WCI  30
Caldwell       FAIR      38  21  50 N13G26    30.27R WCI  30
Somerville     FAIR      39  26  59 NW15G21   30.27R WCI  31
Linden         FAIR      38  25  60 N6        30.28R WCI  33
Perth Amboy      N/A     37 N/A N/A NW13G18     N/A  WCI  29
Sussex         PTSUNNY   37  22  54 N10       30.24R WCI  30
Andover          N/A     37  21  52 N8G21     30.26R WCI  31
Trenton        FAIR      38  28  67 NW6       30.30R WCI  33
Millville      FAIR      39  30  70 NW13G20   30.35R WCI  31
Atlantic City  FAIR      41  33  73 NW14G23   30.33R
Wrightstown    FAIR      38  27  65 NW10      30.28R WCI  31
Toms River     FAIR      38  32  79 NW12      30.32R WCI  30
Belmar         FAIR      37  29  72 W12       30.29R WCI  29
$$

PAZ047>061-062-071-181600-
Eastern Pennsylvania

CITY           SKY/WX    TMP DP  RH WIND       PRES   REMARKS
Philadelphia   FAIR      39  28  64 NW9       30.34R WCI  33
Allentown      FAIR      38  23  55 N16G23    30.29R WCI  29
Scranton       PTSUNNY   34  23  64 NW10      30.27R WCI  26
$$

CTZ002-004>006-009-010-012-RIZ004-006-007-MAZ004-011-015-181600-
Southern New England

 In CT

CITY           SKY/WX    TMP DP  RH WIND       PRES   REMARKS
Bradley Intl   FAIR      36  21  54 N13       30.23R WCI  27
Hartford       FAIR      37  22  54 NW16G29   30.22R WCI  28
Danbury        FAIR      36  21  54 N13       30.21R WCI  27
Wtrbury/Oxford FAIR      34  21  59 N23G29    30.17R WCI  22
Norwalk Harbor   N/A     36 N/A N/A NW20G25     N/A  WCI  25
Bridgeport     FAIR      38  27  64 N16G26    30.21R WCI  29
Meriden        FAIR      37  21  52 NW20G32   30.20R WCI  27
New Haven      FAIR      38  23  55 N16G24    30.20R WCI  29
Chester        FAIR      37  23  56 N18G32    30.19R WCI  27
Groton         FAIR      37  26  64 N23G30    30.17R WCI  26
Willimantic    FAIR      37  25  61 NW15G23   30.20R WCI  28

 In RI

CITY           SKY/WX    TMP DP  RH WIND       PRES   REMARKS
Providence     FAIR      38  28  67 NW18G26   30.16R WCI  28
Block Island   FAIR      38  29  70 NW20G29   30.17R WCI  28
Westerly       FAIR      39  28  64 NW15G26   30.18R WCI  31

In MA

CITY           SKY/WX    TMP DP  RH WIND       PRES   REMARKS
Boston         FAIR      36  28  73 NW20G26   30.14R WCI  25
Worcester      FAIR      33  24  69 W15G26    30.13R WCI  23
Westfield      FAIR      36  22  56 NW20G33   30.21R WCI  25
Provincetown   PTSUNNY   38  32  79 NW24G33   30.10R WCI  27
Nantucket      FAIR      39  34  82 NW24G35   30.08R WCI  28
$$

ANZ330-335-338-340-345-350-353-355-181600-
Coastal Marine Observations


STATION/POSITION TIME  SKY/WX   TEMP    WIND        PRES    VSBY  WAVE
                                AIR SEA DIR/SP/G                  HT/PER
                 (UTC)          (F)     (DEG/KT/KT) (MB)    (MI)  (FT/S)
NY Harb Entrance 1450            38 39  320/ 17/ 19 1024.4          3/ 4
20 S Fire Island 1450            38 42  320/ 21/ 27 1024.0          5/ 5
15 E Barnegat Li 1430               41                N/A           3/ 4
Hudson Canyon    1450            41 47  330/ 25/ 29 1023.2          8/ 7
Kings Point      1442            36 35   10/ 14/ 16 1025.4
Execution Rocks  NOT AVBL
Western LI Sound NOT AVBL
Central LI Sound 1415            37     330/ 19/ 25   N/A           2
Robbins Reef     1442            38     320/ 14/ 19 1025.4
$$


>>>>>>>>>>>>>>>>>>>>>>>>>>>> KEY <<<<<<<<<<<<<<<<<<<<<<<<<<<
>                                                          <
>     SKY/WX - Sky Condition/Present Weather               <
>     TMP    - Temperature in Fahrenheit                   <
>     DP     - Dew Point in Fahrenheit                     <
>     RH     - Relative Humidity in Percent                <
>     WIND   - Direction (from) and Speed in MPH           <
>     PRES   - Mean Sea Level Pressure (inches of Hg)      <
>     WCI    - Wind Chill Index                            <
>     VSB    - Visibility in Miles                         <
>     HX     - Heat Index                                  <
>     TC     - Temperature in Celsius                      <
>     VRB    - Varibale Wind Direction                     <
>                                                          <
>>>>>>>>>>>>>>>>>>>>>>>>>>>> KEY <<<<<<<<<<<<<<<<<<<<<<<<<<<




USA.gov is the U.S. government's official web portal to all federal, state and local government web resources and services.